SB KEPS @ AMSAT $ORB09232.N 2Line Orbital Elements 09232.AMSAT
HR AMSAT ORBITAL ELEMENTS FOR AMATEUR SATELLITES IN NASA FORMAT FROM WA5QGD FORT WORTH,TX August 20, 2009 Send Subscribe/unsubscribe to KEPS at http://www.amsat.org/mailman/listinfo/keps BID: ORB09232.N
DECODE 2-LINE ELSETS WITH THE FOLLOWING KEY: 1 AAAAAU 00 0 0 BBBBB.BBBBBBBB .CCCCCCCC 00000-0 00000-0 0 DDDZ 2 AAAAA EEE.EEEE FFF.FFFF GGGGGGG HHH.HHHH III.IIII JJ.JJJJJJJJKKKKKZ KEY: A-CATALOGNUM B-EPOCHTIME C-DECAY D-ELSETNUM E-INCLINATION F-RAAN G-ECCENTRICITY H-ARGPERIGEE I-MNANOM J-MNMOTION K-ORBITNUM Z-CHECKSUM
TO ALL RADIO AMATEURS BT
AO-07 1 07530U 74089B 09231.69446898 -.00000027 00000-0 10000-3 0 5598 2 07530 101.4245 254.0354 0011854 143.0502 217.1384 12.53576214590670 FO-29 1 24278U 96046B 09231.23192975 -.00000035 00000-0 10408-6 0 01216 2 24278 098.5446 096.7716 0350559 186.8788 172.7474 13.52944294642276 SO-33 1 25509U 98061B 09231.80134327 .00000201 00000-0 26620-4 0 5223 2 25509 031.4324 052.7820 0354314 174.7967 185.6462 14.28262689564932 RS-22 1 27939U 03042A 09231.65356522 .00000009 00000-0 10552-4 0 08702 2 27939 097.9343 104.1831 0012672 294.9252 065.0640 14.63335031314857 VO-52 1 28650U 05017B 09231.80325078 .00000232 00000-0 35919-4 0 03017 2 28650 097.7374 291.2653 0027148 179.2720 180.8559 14.81611620232067 AO-16 1 20439U 90005D 09231.79578839 -.00000003 00000-0 14461-4 0 06826 2 20439 098.2851 197.3235 0010986 347.5702 012.5206 14.31830917022259 LO-19 1 20442U 90005G 09232.68079100 -.00000098 00000-0 -21068-4 0 5966 2 20442 098.2484 205.1821 0011479 340.0494 020.0234 14.32065433 22549 AO-27 1 22825U 93061C 09231.78102779 .00000006 00000-0 18915-4 0 03206 2 22825 098.4404 183.2168 0009369 078.2248 281.9985 14.29271468828999 IO-26 1 22826U 93061D 09232.38996747 .00000017 00000-0 23300-4 0 483 2 22826 098.4344 184.5281 0009910 072.0485 288.1773 14.29524056829180 GO-32 1 25397U 98043D 09231.91071441 -.00000091 00000-0 -22178-4 0 09718 2 25397 098.3261 250.8351 0002149 073.0626 287.0786 14.23161962577193 NO-44 1 26931U 01043C 09231.67030908 .00000151 00000-0 91352-4 0 02474 2 26931 067.0510 260.7942 0006600 278.0063 082.0287 14.29564469411654 SO-50 1 27607U 02058C 09231.39440928 -.00000026 00000-0 17968-4 0 9625 2 27607 064.5566 193.1186 0060506 190.2734 169.7138 14.71453409357972 CO-55 1 27844U 03031E 09232.50617797 .00000014 00000-0 26929-4 0 6488 2 27844 098.7135 240.7660 0009660 324.0453 036.0076 14.20651549318390 CO-57 1 27848U 03031J 09231.50655547 .00000018 00000-0 28735-4 0 05981 2 27848 098.7166 238.8432 0009540 331.3101 028.7549 14.20451999318212 AO-51 1 28375U 04025K 09232.55636497 -.00000001 00000-0 12469-4 0 4653 2 28375 098.0531 238.4104 0083652 290.6047 068.6188 14.40649734270229 CO-56 1 28941U 06005C 09232.78036428 .00077689 49550-5 18698-3 0 3656 2 28941 098.1374 059.8092 0065826 245.2344 114.2180 15.92685012197500 GENESAT1 1 29655U 06058C 09232.83435070 .00008223 00000-0 78201-4 0 7863 2 29655 040.0228 137.8714 0004693 272.5258 087.5058 15.66828389152613 CP3 1 31129U 07012N 09232.59804067 .00000031 00000-0 17541-4 0 1393 2 31129 097.9839 282.5745 0103577 085.6637 275.6391 14.52155861124237 CO-65 1 32785U 08021C 09232.89614360 .00000156 00000-0 26707-4 0 4509 2 32785 097.9402 296.3128 0015015 176.6056 183.5261 14.81509662 71020 KKS-1 1 33493U 09002B 09232.77001209 .00000173 00000-0 29450-4 0 6784 2 33493 098.0611 345.2777 0020902 035.9792 324.2821 14.80715588 31027 SOHLA-1 1 33496U 09002E 09232.73556454 -.00000004 00000-0 74685-5 0 6426 2 33496 098.0417 341.0506 0007906 078.6659 281.5439 14.69443405 30755 NOAA-10 1 16969U 86073A 09231.59558919 .00000007 00000-0 21054-4 0 07307 2 16969 098.6902 257.8914 0012712 015.9805 344.1772 14.27392357192557 NOAA-11 1 19531U 88089A 09231.78100757 .00000081 00000-0 64504-4 0 07475 2 19531 098.7834 320.7508 0010839 289.3686 070.6312 14.14901810078517 NOAA-12 1 21263U 91032A 09231.97683446 .00000025 00000-0 29555-4 0 02643 2 21263 098.7738 240.0700 0012108 326.1697 033.8709 14.25589597949486 MET-3/5 1 21655U 91056A 09232.79894808 .00000051 00000-0 10000-3 0 6424 2 21655 082.5573 160.8609 0014558 024.2337 335.9466 13.17020339866134 MET-2/21 1 22782U 93055A 09231.81550834 -.00000088 00000-0 -92915-4 0 05435 2 22782 082.5500 131.5487 0022539 164.4994 195.6865 13.83638941806404 OKEAN-4 1 23317U 94066A 09231.67128504 -.00000008 00000-0 -39768-5 0 09964 2 23317 082.5395 275.2458 0022907 151.3441 208.9044 14.82713864801776 NOAA-14 1 23455U 94089A 09231.93669291 -.00000295 00000-0 -13249-3 0 07290 2 23455 098.9066 309.3829 0009531 016.1103 344.0341 14.13766376754934 NOAA-15 1 25338U 98030A 09231.74834812 -.00000146 00000-0 -44119-4 0 00495 2 25338 098.5884 219.5767 0009863 229.0382 130.9924 14.24779230585829 RESURS 1 25394U 98043A 09231.95234430 -.00000017 00000-0 10307-4 0 02900 2 25394 098.3337 261.0440 0002284 042.6729 317.4628 14.24188074577471 FENGYUN1 1 25730U 99025A 09232.38392124 .00000658 00000-0 41144-3 0 8311 2 25730 098.7572 200.6267 0023433 036.3371 323.9383 14.07960518529354 OKEAN-0 1 25860U 99039A 09231.52515346 .00000032 00000-0 12173-4 0 07628 2 25860 097.7926 210.2078 0001246 044.9503 315.1795 14.73584353542477 NOAA-16 1 26536U 00055A 09231.75986009 -.00000157 00000-0 -59764-4 0 05278 2 26536 099.1787 236.9711 0011391 102.6556 257.5853 14.12529069459275 NOAA-17 1 27453U 02032A 09231.93794464 -.00000073 00000-0 -13320-4 0 05293 2 27453 098.4794 288.7954 0010785 300.0443 059.9630 14.24083659371827 NOAA-18 1 28654U 05018A 09231.92573047 -.00000149 00000-0 -57922-4 0 00155 2 28654 098.9089 174.6800 0014201 179.2928 180.8301 14.11277322218947 NOAA-19 1 33591U 09005A 09231.91947717 .00000038 00000-0 45224-4 0 02204 2 33591 098.7480 176.0317 0015137 064.4445 295.8327 14.10978192027421 HUBBLE 1 20580U 90037B 09230.15722119 .00000240 00000-0 56070-5 0 04350 2 20580 028.4707 057.8415 0003405 218.2776 141.7609 15.00822419859170 ISS 1 25544U 98067A 09232.76531237 .00006251 00000-0 47861-4 0 4506 2 25544 051.6413 335.3302 0008604 358.8497 138.3300 15.73685025616129 CO-58 1 28895U 05043F 09232.22134410 .00000125 00000-0 35714-4 0 3746 2 28895 098.0503 121.0166 0018403 144.4307 215.8111 14.59788653203072 FALCON 1 30776U 07006E 09231.92431672 .00000165 00000-0 15010-4 0 06524 2 30776 035.4338 072.6944 0000289 009.2112 350.8609 15.03286615134698 MAST 1 31126U 07012K 09232.74436281 .00000021 00000-0 15021-4 0 6650 2 31126 097.9845 284.5757 0095817 079.4720 281.7348 14.53512412124417 CAPE1 1 31130U 07012P 09232.64019071 .00000080 00000-0 28845-4 0 6763 2 31130 097.9842 282.5180 0103921 085.7378 275.5662 14.52080733124046 COMPASS 1 32787U 08021E 09232.19206445 -.00000063 00000-0 -12459-5 0 4414 2 32787 097.9378 295.4604 0015719 180.5276 179.5922 14.81641096 70927 AAUSAT2 1 32788U 08021F 09231.74943570 .00000104 00000-0 19973-4 0 4367 2 32788 097.9344 295.0885 0015013 183.1715 176.9396 14.81765523 70863 DO-64 1 32789U 08021G 09231.77131545 .00000358 00000-0 52056-4 0 04564 2 32789 097.9408 295.3160 0015441 181.3068 178.8104 14.81770310070868 CO-66 1 32791U 08021J 09232.17482218 .00000071 00000-0 15855-4 0 4331 2 32791 097.9392 295.4757 0015908 178.9116 181.2132 14.81466762 70884 RS-30 1 32953U 08025A 09232.50099964 .00000010 00000-0 00000 0 0 3843 2 32953 082.4983 216.6151 0020404 041.3534 318.9095 12.43002856 56388 TACSAT-3 1 35001U 09028A 09231.41656502 .00001099 00000-0 33478-4 0 00845 2 35001 040.4562 222.4849 0025527 273.2618 086.5276 15.39046939014090 PHARMSAT 1 35002U 09028B 09232.34375764 .00001187 00000-0 34788-4 0 750 2 35002 040.4687 216.3950 0028517 283.7835 075.9807 15.39807842 14239 HAWKSAT1 1 35003U 09028C 09231.99002980 .00002364 00000-0 62025-4 0 00830 2 35003 040.4617 218.0382 0029139 284.8661 074.8963 15.40431962014195 CP6 1 35004U 09028D 09231.98981753 .00002637 00000-0 68475-4 0 00786 2 35004 040.4626 218.0421 0028675 284.1216 075.6437 15.40465550014187 AEROCUB3 1 35005U 09028E 09232.84352155 .00002552 00000-0 66875-4 0 734 2 35005 040.4735 213.1770 0028443 288.8659 070.9077 15.40277680 14315 DRAGNSAT 1 35690U 09038B 09231.75633162 .00016394 00000-0 84946-4 0 215 2 35690 051.6420 339.3593 0003883 141.8958 218.2323 15.81216048 3208 POLLUX 1 35693U 09038E 09232.71102154 .00015097 00000-0 80318-4 0 204 2 35693 051.6417 334.4859 0003968 087.3868 272.7644 15.80717099 3321 CASTOR 1 35694U 09038F 09231.70307606 .00008010 00000-0 45261-4 0 00229 2 35694 051.6431 339.7590 0004612 093.1860 266.9641 15.80252898003167 /EX